Regional Weather Roundup
Issued by NWS

Home | Current Version | Previous Version | Graphics & Text | Print | Product List | Glossary On
Versions: 1 2 3 4 5 6 7 8 9 10 11 12 13 14 15 16 17 18 19 20 21 22 23 24 25 26 27 28 29 30 31 32 33 34 35 36 37 38 39 40 41 42 43 44 45 46 47 48 49 50
000
ASUS43 KOAX 251010
RWRNE

WEATHER ROUNDUP FOR NEBRASKA
NATIONAL WEATHER SERVICE OMAHA NE
500 AM CDT SAT MAR 25 2017

NOTES: SATELLITE DATA IS BEING USED TO AUGMENT CLOUD COVER ABOVE
       12000 FEET.
       "FAIR" INDICATES FEW OR NO CLOUDS BELOW 12,000 FEET WITH NO
       SIGNIFICANT WEATHER AND/OR OBSTRUCTIONS TO VISIBILITY.

  * THESE STATIONS DO NOT REPORT WEATHER SUCH AS RAIN...SNOW OR FOG.

NEZ001>004-019>022-054>056-251100-
NEBRASKA PANHANDLE

CITY           SKY/WX    TMP DP  RH WIND       PRES   REMARKS
SCOTTSBLUFF    CLOUDY    31  25  78 E8        30.03F WCI  23
ALLIANCE       CLOUDY    21  18  88 CALM      30.03F
CHADRON        CLOUDY    35  28  75 S3        30.00F
KIMBALL        CLOUDY    28  28  98 W5        30.05F WCI  23
SIDNEY         CLOUDY    23  21  92 W3        30.07S
$$

NEZ057>060-069>072-079>082-251100-
SOUTHWEST NEBRASKA

CITY           SKY/WX    TMP DP  RH WIND       PRES   REMARKS
NORTH PLATTE   CLEAR     30  26  85 W5        30.06S WCI  25
IMPERIAL       CLEAR     32  27  81 NW8       30.05F WCI  25
LEXINGTON      PTCLDY    35  33  92 N9        30.03S WCI  27
MCCOOK         CLEAR     34  33  96 NW10      30.04S WCI  26
OGALLALA       CLOUDY    31  29  92 W8        30.06S WCI  23
$$

NEZ005>010-023>029-035>040-094-251100-
NORTH CENTRAL NEBRASKA

CITY           SKY/WX    TMP DP  RH WIND       PRES   REMARKS
VALENTINE      CLOUDY    24  20  84 CALM      30.06F
AINSWORTH      SNOW      29  29 100 NE8       30.07S VSB 1/4 WCI  22
BROKEN BOW     CLOUDY    34  32  92 N13       30.03S WCI  25
O`NEILL        CLOUDY    35  35  99 N10       30.07S FOG     WCI  27
ORD            CLOUDY    36  34  92 N14       30.04S FOG     WCI  27
THEDFORD       CLOUDY    29  26  88 CALM      30.07S
$$

NEZ041-046>049-061>064-073>077-083>087-251100-
SOUTH CENTRAL NEBRASKA

CITY           SKY/WX    TMP DP  RH WIND       PRES   REMARKS
GRAND ISLAND   CLOUDY    37  37 100 N17G25    30.03R FOG     WCI  27
AURORA         CLOUDY    37  36  97 N18G29    30.01R FOG     WCI  27
HASTINGS       CLOUDY    38  36  92 N18       30.01R FOG     WCI  28
HEBRON         LGT RAIN  40  38  95 N14       29.96R WCI  32
HOLDREGE       CLOUDY    39  37  91 N14G21    30.01R WCI  31
KEARNEY *      CLOUDY    39  34  81 N16       30.02S WCI  30
YORK           RAIN      37  37 100 N18G29    29.99S WCI  27
$$

NEZ011>018-030>034-042>045-251100-
NORTHEAST NEBRASKA

CITY           SKY/WX    TMP DP  RH WIND       PRES   REMARKS
NORFOLK        CLOUDY    36  34  92 N16G24    30.04R FOG     WCI  26
ALBION         CLOUDY    37  35  91 N10       30.05R FOG     WCI  30
BLAIR          LGT RAIN  40  39  96 N23G29    29.92R WCI  30
FREMONT        CLOUDY    40  40  99 N15G22    29.97S FOG     WCI  32
TEKAMAH        CLOUDY    41  38  89 N22       29.98R
WAYNE          CLOUDY    37  37  99 N17       30.04S FOG     WCI  27
$$

NEZ050>053-065>068-078-088>093-251100-
SOUTHEAST NEBRASKA

CITY           SKY/WX    TMP DP  RH WIND       PRES   REMARKS
LINCOLN        RAIN      41  39  93 N17       29.96R FOG
OMAHA EPPLEY   LGT RAIN  41  37  86 N17G25    29.93S FOG
BEATRICE       RAIN      41  40  97 N17G23    29.92R
FALLS CITY     LGT RAIN  44  42  93 N13       29.84R
NEBRASKA CITY  LGT RAIN  40  40 100 N20       29.88S WCI  31
PLATTSMOUTH    RAIN      40  38  91 N12       29.91R WCI  34
$$

NEZ044-045-051>053-067-251100-
OMAHA AREA

CITY           SKY/WX    TMP DP  RH WIND       PRES   REMARKS
OMAHA EPPLEY   LGT RAIN  41  37  86 N17G25    29.93S FOG
BLAIR          LGT RAIN  40  39  96 N23G29    29.92R WCI  30
FREMONT        CLOUDY    40  40  99 N15G22    29.97S FOG     WCI  32
MILLARD        RAIN      43  41  93 N8        29.94R
OFFUTT AFB     LGT RAIN  41  39  93 N13       29.91S FOG
PLATTSMOUTH    RAIN      40  38  91 N12       29.91R WCI  34
WAHOO          LGT RAIN  40  38  94 N17       29.96R WCI  31
$$




USA.gov is the U.S. government's official web portal to all federal, state and local government web resources and services.